Terminal Aerodrome Forecast
Issued by NWS Memphis, TN

Home | Current Version | Previous Version | Text Only | Print | Product List | Glossary On
Versions: 1 2 3 4 5 6 7 8 9 10 11 12 13 14 15 16 17 18 19 20 21 22 23 24 25 26 27 28 29 30 31 32 33 34 35 36 37 38 39 40 41 42 43 44 45 46 47 48
000
FTUS44 KMEG 190858 AAC
TAFMEM
TAF AMD
KMEM 190858Z 1909/2006 16006KT P6SM -RA OVC007
     FM191100 23006KT 5SM BR VCSH OVC007
     FM191400 24006KT P6SM VCSH BKN015
     FM191700 24010KT P6SM SCT025 BKN040
     FM191900 23010KT P6SM SCT040 BKN250
     FM200300 20010KT P6SM VCTS SCT020 BKN040CB
      TEMPO 2003/2006 3SM TSRA BKN020CB=

USA.gov is the U.S. government's official web portal to all federal, state and local government web resources and services.